Torna al catalogo

COSMOS 2251 DEB

AttivoLEO
NORAD 38212·DEBRIS·🇷🇺 Russia

Lanciato Jun 16, 1993 da Plesetsk Cosmodrome

Loading…

Prossimi Passaggi (prossime 24 ore)

TLE

In scadenzaSource: Space-Track

Epoca: Sep 11, 2026, 10:28 UTC

1 38212U 93036BTC 26254.43615490  .00001458  00000-0  18813-3 0  9990
2 38212  74.0474 261.1206 0093019 255.7967 103.2863 14.79069845853401

Traccia COSMOS 2251 DEB in tempo reale con AllMySat

Download on the App Store